TimePST,TemperatureF,Dew PointF,Humidity,Sea Level PressureIn,VisibilityMPH,Wind Direction,Wind SpeedMPH,Gust SpeedMPH,PrecipitationIn,Events,Conditions,WindDirDegrees,DateUTC
12:53 AM,39.9,37.9,93,30.25,10.0,Calm,Calm,-,N/A,,Clear,0,2013-02-14 08:53:00
1:53 AM,39.9,37.9,93,30.26,10.0,Calm,Calm,-,N/A,,Clear,0,2013-02-14 09:53:00
2:53 AM,39.9,37.0,89,30.25,10.0,Calm,Calm,-,N/A,,Clear,0,2013-02-14 10:53:00
3:53 AM,39.9,37.0,89,30.24,10.0,Calm,Calm,-,N/A,,Clear,0,2013-02-14 11:53:00
4:53 AM,37.0,35.1,93,30.24,10.0,Calm,Calm,-,N/A,,Clear,0,2013-02-14 12:53:00
5:53 AM,36.0,35.1,97,30.24,8.0,Calm,Calm,-,N/A,,Clear,0,2013-02-14 13:53:00
6:53 AM,36.0,35.1,97,30.25,8.0,Calm,Calm,-,N/A,,Clear,0,2013-02-14 14:53:00
7:53 AM,43.0,39.0,86,30.27,9.0,Calm,Calm,-,N/A,,Clear,0,2013-02-14 15:53:00
8:53 AM,51.1,39.0,63,30.27,10.0,Calm,Calm,-,N/A,,Clear,0,2013-02-14 16:53:00
9:53 AM,57.9,41.0,53,30.26,10.0,Calm,Calm,-,N/A,,Clear,0,2013-02-14 17:53:00
10:53 AM,66.9,39.0,36,30.25,10.0,NNE,8.1,19.6,N/A,,Clear,20,2013-02-14 18:53:00
11:53 AM,69.1,36.0,30,30.22,10.0,North,13.8,23.0,N/A,,Clear,360,2013-02-14 19:53:00
12:53 PM,72.0,37.0,28,30.20,10.0,North,9.2,18.4,N/A,,Clear,10,2013-02-14 20:53:00
1:53 PM,73.0,37.0,27,30.19,10.0,North,11.5,18.4,N/A,,Clear,360,2013-02-14 21:53:00
2:53 PM,73.9,37.0,26,30.18,10.0,North,6.9,-,N/A,,Clear,360,2013-02-14 22:53:00
3:53 PM,72.0,37.0,28,30.17,10.0,NNE,5.8,-,N/A,,Clear,20,2013-02-14 23:53:00
4:53 PM,70.0,39.0,32,30.18,10.0,NE,3.5,-,N/A,,Clear,40,2013-02-15 00:53:00
5:53 PM,60.1,39.0,46,30.18,10.0,Calm,Calm,-,N/A,,Clear,0,2013-02-15 01:53:00
6:53 PM,51.1,39.0,63,30.19,10.0,Calm,Calm,-,N/A,,Clear,0,2013-02-15 02:53:00
7:53 PM,52.0,39.0,61,30.19,10.0,WSW,3.5,-,N/A,,Clear,250,2013-02-15 03:53:00
8:53 PM,46.9,37.9,71,30.20,10.0,SW,3.5,-,N/A,,Clear,230,2013-02-15 04:53:00
9:53 PM,46.9,37.9,71,30.21,10.0,Calm,Calm,-,N/A,,Clear,0,2013-02-15 05:53:00
10:53 PM,45.0,37.9,76,30.23,10.0,Calm,Calm,-,N/A,,Clear,0,2013-02-15 06:53:00
11:53 PM,43.0,36.0,76,30.23,10.0,Calm,Calm,-,N/A,,Clear,0,2013-02-15 07:53:00